Back to catalog

COSMOS 2291

AliveMilitaryGEO
NORAD 23267·PAYLOAD·🇷🇺 Russia

Launched Sep 21, 1994 from Baikonur Cosmodrome

Loading…

TLE

FreshSource: Space-Track

Epoch: Sep 10, 2026, 22:41 UTC

1 23267U 94060A   26253.94547127 -.00000082  00000-0  00000-0 0  9997
2 23267  14.1236 348.9769 0007628 228.5426 107.2602  1.00286594117054

Track COSMOS 2291 in real time with AllMySat

Download on the App Store